Location: Carnières
(50.1682°N, 3.3474°E)
Time: 19:45:13
(UTC+00:00)

SL-16 R/B - Pass Details

Date: 13 August 2024
Orbit: 842 x 845 km, 71.0° (Epoch: 10 September)

Event Time Altitude Azimuth Distance (km) Brightness Sun altitude
Exits shadow 01:55:40 - 277° (W) 2,775 4.6 -19.8°
Reaches altitude 10° 01:56:52 10° 285° (WNW) 2,470 4.5 -19.7°
Maximum altitude 02:00:36 18° 327° (NNW) 1,989 4.4 -19.3°
Drops below altitude 10° 02:04:20 10° 8° (N) 2,477 5.6 -19.0°
Sets 02:07:41 0° 28° (NNE) 3,416 7.0 -18.7°
